Weather History for Pensacola, FL

Change the Weather History Date:

Monday, February 17, 2014

  Actual Average Record
Temperature  
Mean Temperature 61 °F 55 °F  
Max Temperature 72 °F 64 °F 81 °F (1975)
Min Temperature 49 °F 46 °F 21 °F (1900)
Degree Days  
Heating Degree Days 4 10  
Month to date heating degree days 196 198  
Since 1 July heating degree days 1272 1209  
Cooling Degree Days 0 0  
Month to date cooling degree days 0 0  
Year to date cooling degree days 0 6  
Growing Degree Days 10 (Base 50)    
Moisture  
Dew Point 56 °F    
Average Humidity 80    
Maximum Humidity 93    
Minimum Humidity 66    
Precipitation  
Precipitation 0.00 in 0.18 in 3.71 in (1940)
Month to date precipitation 2.25 3.04  
Year to date precipitation 5.70 7.67  
Snow  
Snow 0.00 in 0.00 in - ()
Month to date snowfall T 0.0  
Since 1 July snowfall 1.0 0.0  
Snow Depth 0.00 in    
Sea Level Pressure  
Sea Level Pressure 30.16 in    
Wind  
Wind Speed 6 mph (South)    
Max Wind Speed 17 mph    
Max Gust Speed 22 mph    
Visibility 9 miles    
Events      
T = Trace of Precipitation, MM = Missing Value Source: NWS Daily Summary

Daily Weather History Graph

Daily Weather History Graph

Search for Another Location

Airport:

Trip Planner

Search our weather history database for the weather conditions in past years. The results will help you decide how hot, cold, wet, or windy it might be!

Date:

Astronomy

Feb. 17, 2014 Rise Set
Actual Time 6:27 AM CST 5:38 PM CST
Civil Twilight 6:02 AM CST 6:03 PM CST
Nautical Twilight 5:34 AM CST 6:31 PM CST
Astronomical Twilight 5:06 AM CST 6:59 PM CST
Moon 8:17 PM CST (2/17) 7:41 AM CST (2/17)
Length of Visible Light 12h 00m
Length of Day
11h 11m
Waning Gibbous, 93% of the Moon is Illuminated
Feb 17
Waning Gibbous
Feb 22
Last Quarter
Mar 1
New
Mar 8
First Quarter
Mar 16
Full

Hourly Weather History & Observations

Time (CST) Temp. Dew Point Humidity Pressure Visibility Wind Dir Wind Speed Gust Speed Precip Events Conditions
12:53 AM 54.0 °F 51.1 °F 90% 30.15 in 10.0 mi Calm Calm - N/A   Clear
1:53 AM 53.1 °F 51.1 °F 93% 30.14 in 8.0 mi Calm Calm - N/A   Clear
2:53 AM 54.0 °F 52.0 °F 93% 30.14 in 10.0 mi Calm Calm - N/A   Clear
3:53 AM 55.0 °F 52.0 °F 89% 30.15 in 10.0 mi Calm Calm - N/A   Clear
4:53 AM 54.0 °F 52.0 °F 93% 30.15 in 10.0 mi SSE 3.5 mph - N/A   Clear
5:53 AM 51.1 °F 48.9 °F 92% 30.17 in 10.0 mi Calm Calm - N/A   Clear
6:09 AM 50.0 °F 48.0 °F 93% 30.16 in 1.8 mi ESE 3.5 mph - N/A   Clear
6:23 AM 50.0 °F 48.0 °F 93% 30.17 in 3.0 mi Calm Calm - N/A   Clear
6:53 AM 50.0 °F 48.0 °F 93% 30.18 in 3.0 mi ESE 3.5 mph - N/A   Scattered Clouds
7:53 AM 57.0 °F 54.0 °F 89% 30.19 in 10.0 mi Calm Calm - N/A   Overcast
8:53 AM 57.9 °F 55.0 °F 90% 30.20 in 10.0 mi ESE 4.6 mph - N/A   Overcast
9:53 AM 64.9 °F 57.0 °F 75% 30.19 in 10.0 mi SSE 5.8 mph - N/A   Overcast
10:53 AM 69.1 °F 57.0 °F 65% 30.19 in 10.0 mi South 9.2 mph - N/A   Overcast
11:53 AM 70.0 °F 59.0 °F 68% 30.19 in 10.0 mi South 11.5 mph - N/A   Mostly Cloudy
12:53 PM 70.0 °F 59.0 °F 68% 30.16 in 10.0 mi South 15.0 mph - N/A   Mostly Cloudy
1:53 PM 70.0 °F 59.0 °F 68% 30.15 in 10.0 mi South 10.4 mph - N/A   Mostly Cloudy
2:00 PM 69.1 °F 59.0 °F 70% 30.14 in 10.0 mi South 11.5 mph - N/A   Overcast
2:53 PM 71.1 °F 59.0 °F 66% 30.14 in 10.0 mi South 11.5 mph - N/A   Overcast
3:53 PM 68.0 °F 59.0 °F 73% 30.14 in 10.0 mi South 11.5 mph - N/A   Overcast
4:53 PM 66.9 °F 60.1 °F 79% 30.14 in 10.0 mi South 10.4 mph - N/A   Overcast
5:53 PM 64.0 °F 60.1 °F 87% 30.14 in 10.0 mi South 8.1 mph - N/A   Mostly Cloudy
6:03 PM 64.0 °F 60.1 °F 87% 30.13 in 10.0 mi South 6.9 mph - N/A   Mostly Cloudy
6:53 PM 64.0 °F 61.0 °F 90% 30.15 in 10.0 mi South 4.6 mph - N/A   Overcast
7:53 PM 64.0 °F 61.0 °F 90% 30.16 in 10.0 mi SSW 6.9 mph - N/A   Mostly Cloudy
8:53 PM 63.0 °F 60.1 °F 90% 30.18 in 10.0 mi SW 8.1 mph - N/A   Clear
9:26 PM 64.0 °F 61.0 °F 90% 30.17 in 10.0 mi SSW 9.2 mph - N/A   Overcast
9:41 PM 64.0 °F 60.1 °F 87% 30.17 in 10.0 mi SSW 9.2 mph - N/A   Scattered Clouds
9:53 PM 63.0 °F 60.1 °F 90% 30.18 in 10.0 mi SSW 10.4 mph - N/A   Clear
10:53 PM 63.0 °F 60.1 °F 90% 30.16 in 10.0 mi SSW 10.4 mph - N/A   Clear
11:53 PM 63.0 °F 59.0 °F 87% 30.16 in 10.0 mi SSW 9.2 mph - N/A   Partly Cloudy